Regional Weather Roundup
Issued by NWS

Home | Current Version | Previous Version | Graphics & Text | Print | Product List | Glossary On
Versions: 1 2 3 4 5 6 7 8 9 10 11 12 13 14 15 16 17 18 19 20 21 22 23 24 25 26 27 28 29 30 31 32 33 34 35 36 37 38 39 40 41 42 43 44 45 46 47 48 49 50
450
ASUS45 KCYS 301810
RWRWY

WYOMING REGIONAL WEATHER ROUNDUP
NATIONAL WEATHER SERVICE CHEYENNE WY
1200 PM MDT FRI SEP 30 2016

NOTE:  "FAIR" INDICATES FEW OR NO CLOUDS BELOW 12,000 FEET
WITH NO SIGNIFICANT WEATHER AND/OR OBSTRUCTIONS TO VISIBILITY.

WYZ001-301900-
YELLOWSTONE NATIONAL PARK

CITY           SKY/WX    TMP DP  RH WIND       PRES   REMARKS
LK YELLOWSTONE   N/A     52  45  77 VRB3      30.37F
6HR MIN TEMP:  31; 6HR MAX TEMP:  52;

W YELLOWSTONE  NOT AVBL

$$
WYZ002>013-054>058-071-098>099-301900-
NORTHERN WYOMING

CITY           SKY/WX    TMP DP  RH WIND       PRES   REMARKS
JACKSON        CLOUDY    48  46  93 CALM      30.33F
CODY           FAIR      72  43  35 W9        30.15F
GREYBULL       FAIR      69  52  54 S7        30.11F
6HR MIN TEMP:  52; 6HR MAX TEMP:  69;

WORLAND        FAIR      68  50  52 W6        30.12F
6HR MIN TEMP:  45; 6HR MAX TEMP:  68;

SHERIDAN       FAIR      77  49  37 CALM      30.07F
6HR MIN TEMP:  49; 6HR MAX TEMP:  77;

BUFFALO        FAIR      72  45  37 S5        30.13F
6HR MIN TEMP:  55; 6HR MAX TEMP:  74;

GILLETTE       FAIR      75  48  38 N5        30.08S
6HR MIN TEMP:  57; 6HR MAX TEMP:  75;

HULETT         FAIR      73  48  40 SW13G20   30.09S
NEWCASTLE      FAIR      70  45  40 S13G22    30.14R

$$
WYZ014>020-022>026-101>103-301900-
CENTRAL WYOMING

CITY           SKY/WX    TMP DP  RH WIND       PRES   REMARKS
BIG PINEY      FAIR      61  40  45 VRB3      30.34F
6HR MIN TEMP:  33; 6HR MAX TEMP:  61;

PINEDALE       FAIR      61  41  48 NW3       30.34F
DUBOIS         FAIR      61  39  44 NW16      30.29F
LANDER         FAIR      70  43  37 CALM      30.20F
6HR MIN TEMP:  44; 6HR MAX TEMP:  70;

RIVERTON       FAIR      69  44  40 W9        30.20F
6HR MIN TEMP:  47; 6HR MAX TEMP:  69;

CASPER         FAIR      71  48  43 SW20      30.19F
6HR MIN TEMP:  57; 6HR MAX TEMP:  71;

DOUGLAS        FAIR      74  48  39 S13       30.18F
6HR MIN TEMP:  53; 6HR MAX TEMP:  74; 6HR PCP: TRACE;


$$
WYZ021-027>030-104>119-301900-
SOUTHERN WYOMING

CITY           SKY/WX    TMP DP  RH WIND       PRES   REMARKS
EVANSTON       CLOUDY    62  43  49 SW12      30.34F
6HR MIN TEMP:  47; 6HR MAX TEMP:  62;

FORT BRIDGER   CLOUDY    61  43  51 W5        30.37F
ROCK SPRINGS   FAIR      65  42  43 W14       30.32F
6HR MIN TEMP:  47; 6HR MAX TEMP:  65;

DIXON          MOCLDY    61  47  61 SW10      30.37F
RAWLINS        FAIR      66  44  45 SW15      30.31F
6HR MIN TEMP:  51; 6HR MAX TEMP:  66; 6HR PCP: TRACE;

SARATOGA       CLOUDY    61  45  55 CALM      30.35F
LARAMIE        PTSUNNY   61  46  57 SW13G24   30.33F
6HR MIN TEMP:  49; 6HR MAX TEMP:  61; 6HR PCP:  0.03;

CHEYENNE       CLOUDY    61  51  70 CALM      30.28F
6HR MIN TEMP:  56; 6HR MAX TEMP:  61; 6HR PCP:  0.02;

TORRINGTON     CLOUDY    67  46  47 S5        30.17F
6HR MIN TEMP:  46; 6HR MAX TEMP:  67;

PINE BLUFFS    MOCLDY    68  45  42 NW13G22   30.24F

$$




USA.gov is the U.S. government's official web portal to all federal, state and local government web resources and services.